Location: Slemon Park
(46.4340°N, 63.8219°W)
Time: 09:00:03
(UTC-03:00)

Daily predictions for brighter satellites

Satellite Brightness Start Highest point End
(mag) Time Altitude Azimuth Time Altitude Azimuth Time Altitude Azimuth
CZ-4 SHROUD 4.4 21:27:34 10° SE 21:30:13 26° ENE 21:32:53 10° N
SL-27 R/B 2.5 21:27:07 10° NNW 21:30:49 86° ENE 21:34:26 10° SSE
NOSS 2-2 (C) 3.6 21:27:22 10° SSW 21:31:26 60° ESE 21:36:16 10° NE
COS B Rocket 4.0 21:28:11 10° NNE 21:32:09 37° E 21:35:46 10° SSE
Okean 3 4.5 21:30:29 10° N 21:34:19 30° ENE 21:38:07 10° SE
ALOS 4.2 21:31:24 10° SSW 21:35:30 30° W 21:39:39 10° NNW
Meteor 1-10 Rocket 4.4 21:30:58 10° NNW 21:36:52 87° W 21:42:36 10° S
Cosmos 1833 Rocket 4.5 21:33:21 10° N 21:37:24 20° NE 21:41:25 10° E
Cosmos 1238 Rocket 3.4 21:35:00 10° NNE 21:37:45 28° ENE 21:40:48 10° SE
Cosmos 2278 Rocket 3.2 21:33:32 10° SSE 21:38:09 26° ESE 21:42:48 10° NE
COSMOS 2487 3.7 21:35:23 10° N 21:38:36 29° ENE 21:41:48 10° SE
SL-08 ROCKET BODY 4.4 21:35:25 10° S 21:41:26 86° E 21:47:24 10° N
Cosmos 1844 4.2 21:36:12 10° S 21:41:34 42° ESE 21:47:00 10° NE
PSLV R/B 3.7 21:40:21 10° SE 21:43:08 40° ENE 21:45:57 10° N
Cosmos 1975 Rocket 3.9 21:40:23 10° N 21:44:19 33° ENE 21:48:06 11° SE
SPOT 5 3.2 21:39:22 10° SSE 21:44:35 69° ENE 21:49:57 10° N
Cosmos 1844 Rocket 2.7 21:40:53 10° S 21:46:26 60° ESE 21:51:59 10° NNE
Envisat 3.1 21:41:35 10° SSE 21:46:41 86° WSW 21:51:48 10° NNW
Cosmos 1624 Rocket 4.2 21:43:01 10° SSW 21:48:18 83° WNW 21:53:40 10° NNE
Coronas F rocket 2.9 21:46:11 10° SSW 21:48:41 37° WNW 21:51:11 10° N
NOSS 2-2 (E) 3.7 21:45:55 10° SW 21:50:10 87° NW 21:55:19 10° NE
Cosmos 2154 Rocket 4.1 21:44:23 10° S 21:50:28 59° E 21:56:33 10° NNE
Terra 3.6 21:47:21 10° ESE 21:50:32 18° ENE 21:53:43 10° NNE
Cosmos 1825 2.9 21:47:05 10° SSE 21:50:35 36° E 21:54:07 10° NNE
deb Chang Zheng 4 3.6 21:47:55 10° NNE 21:52:21 81° ESE 21:56:47 10° SSW
ISS -1.5 21:51:18 10° SSE 21:52:52 13° SE 21:52:52 13° SE
Cosmos 1862 3.7 21:49:37 10° SSE 21:53:31 47° E 21:57:28 10° NNE
Cosmos 2082 Rocket 3.5 21:49:33 10° N 21:54:31 29° NE 21:59:24 10° ESE
Cosmos 1908 Rocket 3.6 21:52:16 10° S 21:56:36 62° E 22:01:01 10° NNE
OPS 6432 4.2 21:53:36 10° SW 21:56:55 87° WNW 22:00:03 10° NE
ERBS 4.4 21:54:19 10° WNW 21:56:59 21° SW 21:59:38 10° S
Cosmos 2184 Rocket 4.4 21:51:15 10° SSW 21:57:23 67° W 22:03:34 10° N
YAOGAN 6 2.7 21:54:53 11° SSE 21:58:06 57° ENE 22:01:34 10° N
H-2A R/B 3.4 21:54:01 11° ESE 21:58:18 27° ENE 22:02:43 10° N
CZ-3C R/B 4.5 21:49:49 10° SW 21:58:49 13° SSW 22:03:42 10° S
MetOp-A 4.2 21:53:37 10° SSE 21:58:58 78° ENE 22:04:19 10° NNW
Cosmos 1378 Rocket 3.5 21:54:52 10° N 21:59:11 71° E 22:03:28 10° SSE
Cosmos 1408 3.0 21:55:43 10° SSE 21:59:12 43° E 22:02:42 10° NNE
Gbstr 26 Del rocket 4.4 21:54:38 10° WNW 22:00:01 45° N 22:04:25 10° ENE
Cosmos 1733 Rocket 3.8 21:56:29 10° SSW 22:00:48 55° WNW 22:05:09 10° N
Cosmos 2263 Rocket 4.4 21:57:38 10° WSW 22:02:33 30° NW 22:07:29 10° N
Cosmos 407 Rocket 3.8 21:57:23 10° NNW 22:02:37 67° WSW 22:07:51 10° S
SL-8 R/B 3.6 21:59:59 10° WSW 22:04:48 73° SSE 22:09:37 10° ENE
BREEZE-M DEB (TANK) 3.9 21:48:43 10° WNW 22:04:48 78° SSW 22:08:23 15° ESE
USA 245 3.4 22:02:42 15° SE 22:05:10 51° ENE 22:09:03 10° N
Meteor 1-27 Rocket 3.8 22:00:56 10° NNW 22:06:33 83° W 22:12:04 10° S
Cosmos 1242 Rocket 3.2 22:03:51 10° N 22:07:18 39° ENE 22:09:44 17° SE
Nimbus 7 Rocket 4.4 22:03:17 10° NNE 22:09:14 89° ESE 22:15:13 10° SSW
ERS-1 Rocket 4.4 22:05:33 10° SSW 22:10:10 36° W 22:14:50 10° NNW
Cosmos 1452 Rocket 3.5 22:07:02 10° S 22:12:14 66° ESE 22:17:30 10° NNE
SPOT 1/Viking Rocket 3.6 22:08:36 13° SSE 22:13:16 71° ENE 22:18:29 10° N
Cosmos 2084 3.7 22:10:19 10° S 22:13:52 36° ESE 22:17:25 10° NE
Cosmos 1140 Rocket 3.6 22:09:11 10° NNW 22:14:18 64° ENE 22:18:16 17° SE
Elektron 3 3.8 22:11:37 10° NW 22:14:29 85° NE 22:16:55 19° SE
CZ-4C R/B 4.4 22:13:22 17° ESE 22:15:45 32° ENE 22:19:23 10° N
SL-08 RB Rocket 4.0 22:12:59 16° SE 22:16:28 54° ENE 22:21:00 10° N
Cosmos 1782 4.4 22:14:44 10° NNW 22:18:23 33° W 22:22:01 10° SSW
USA 234 4.0 22:14:21 10° ENE 22:19:53 29° SE 22:25:22 10° S
NOAA 11 4.2 22:17:48 15° SSE 22:22:27 73° ENE 22:27:57 10° N
UNK 4.5 22:16:14 10° NNE 22:22:32 74° ESE 22:28:32 10° S
Cosmos 1606 3.7 22:20:33 10° NNW 22:24:20 46° W 22:28:06 10° SSW
H-2A R/B 3.6 22:22:44 10° SSW 22:26:37 32° W 22:30:27 10° NNW
CZ-4B R/B 3.4 22:23:22 10° NNE 22:28:21 64° ESE 22:33:05 10° S
NOSS 5 (C) 4.1 22:28:52 10° SSW 22:32:10 72° SE 22:35:16 10° NE
CZ-4 R/B 3.9 22:30:56 10° NNE 22:35:34 56° E 22:38:59 17° S
Cosmos 1850 Rocket 4.0 22:37:28 10° NNW 22:42:49 84° ENE 22:46:11 23° SSE
Cosmos 2218 Rocket 4.1 22:41:01 16° S 22:46:05 63° E 22:52:24 10° NNE
Cosmos 1184 Rocket 3.5 22:45:10 12° SSW 22:48:11 54° WNW 22:51:30 10° N
Okean 2 Rocket 3.2 22:45:31 12° SSW 22:49:40 74° W 22:54:06 10° N
Okean 1 4.4 22:50:02 10° N 22:53:41 31° ENE 22:54:54 26° ESE
IGS 5A 3.6 22:56:05 32° SE 22:57:49 60° ENE 23:01:56 10° N
Cosmos 1727 Rocket 4.0 22:53:32 10° N 22:59:43 70° E 23:03:19 26° SSE
DELTA 2 DEB (DPAF) 4.1 22:58:28 28° S 23:00:51 82° WSW 23:05:20 10° NNW
Cosmos 1741 Rocket 4.1 22:56:41 10° NNW 23:01:55 71° WSW 23:04:49 27° S
USA 229 DEB 3.8 22:57:16 10° NW 23:04:24 80° NE 23:08:49 26° SE
USA 229 3.8 22:57:22 10° NW 23:04:30 80° NE 23:08:55 26° SE
ARGOS 3.8 23:01:08 17° S 23:05:09 49° W 23:10:22 10° NNW
Intercosmos 25 3.7 23:02:34 16° SSW 23:05:15 50° W 23:08:21 10° N
Cosmos 1959 Rocket 4.4 23:02:14 17° S 23:07:03 88° E 23:13:12 10° N
Meteor 1-18 Rocket 4.3 23:02:15 10° N 23:08:10 80° E 23:11:24 29° SSE
AVUM R/B 4.0 23:07:27 10° NNW 23:10:53 45° ENE 23:11:38 38° E
Landsat 7 4.1 23:09:27 26° S 23:12:02 64° WSW 23:16:48 10° NNW
Meteor 1-14 Rocket 4.3 23:08:17 16° SSW 23:12:51 82° WNW 23:18:28 10° N
DNEPR-1 R/B 4.5 23:10:09 10° NW 23:15:22 46° WSW 23:17:21 29° S
Timation 2 Rocket 4.4 23:10:40 10° NW 23:16:27 51° WSW 23:19:46 25° S
APEX 3.6 23:17:24 20° SSW 23:20:09 83° WNW 23:25:24 10° NNE
Cosmos 2278 Rocket 3.0 23:16:21 10° SW 23:21:54 53° WNW 23:27:28 10° NNE
Cosmos 1833 Rocket 2.6 23:16:27 10° NNW 23:22:06 88° WSW 23:24:36 35° SSE
Cosmos 1110 Rocket 4.3 23:22:08 36° SSE 23:23:38 47° ESE 23:28:37 10° NNE
CARTOSAT-1 3.9 23:24:39 34° SSW 23:26:19 59° W 23:30:36 10° NNW
Cosmos 1339 Rocket 4.4 23:20:59 10° N 23:27:10 89° W 23:30:20 31° S
Terra 2.1 23:25:43 32° S 23:27:47 63° WSW 23:32:32 10° NNW
ISS -0.8 23:25:38 10° WSW 23:32:53 - ENE 23:25:57 12° WSW
Meteor 2-19 Rocket 4.4 23:26:57 27° S 23:30:27 84° E 23:36:36 10° N
Spot 4 3.9 23:29:22 37° S 23:31:16 77° WSW 23:36:10 10° NNW
Cosmos 1536 Rocket 4.1 23:30:39 10° NNW 23:35:02 54° W 23:36:45 33° SSW
ASTEX 1 3.3 23:32:28 10° N 23:37:26 78° E 23:39:07 42° S
H-2A R/B 2.8 23:34:39 26° SSW 23:37:27 48° W 23:42:37 10° NNW
Cosmos 2082 Rocket 2.6 23:33:22 10° NW 23:38:55 54° WSW 23:41:15 33° S
Cosmos 1633 4.4 23:39:56 20° ENE 23:39:56 20° ENE 23:42:08 10° NE
Cosmos 1812 2.8 23:35:59 10° NNW 23:39:51 68° W 23:40:32 54° SSW
Lacrosse 5 3.8 23:43:32 15° E 23:43:32 15° E 23:44:47 10° ENE
Timation 1 Rocket 4.3 23:39:00 34° S 23:41:34 63° ESE 23:47:31 10° NE
Meteor 1-11 Rocket 4.2 23:40:13 36° SE 23:41:52 45° E 23:47:21 10° NNE
ATLAS 2AS CENTAUR R/B 4.4 23:36:00 10° NW 23:43:17 34° NNE 23:50:21 10° E
Cosmos 1486 Rocket 4.1 23:38:37 10° NNW 23:43:57 67° ENE 23:45:42 42° SE
SL-8 R/B 4.0 23:42:40 10° W 23:47:28 69° N 23:52:16 10° E
Gbstr 26 Del rocket 3.1 23:42:35 10° WNW 23:47:31 73° NNE 23:48:52 42° E
H-2A R/B 4.4 23:49:17 10° NE 23:52:21 20° E 23:52:21 20° E
